カタログに戻る

YAOGAN-35 02B

運用中軍事VLEO
NORAD 52908·PAYLOAD·🇨🇳 China

打ち上げ Jun 23, 2022 から Xichang Satellite Launch Center

Loading…

次のパス (今後24時間)

TLE

最新Source: Space-Track

元期: Sep 14, 2026, 23:19 UTC

1 52908U 22068B   26257.97202198  .00225696  00000-0  11581-2 0  9990
2 52908  34.9907 173.1464 0008581 276.5291  83.4464 15.79569923236802

AllMySatでYAOGAN-35 02Bをリアルタイム追跡

Download on the App Store